[Iaude] MPEC E175: 2024 EW3 [a=0.92,e=0.14,i=1.4,H=28.5]

mpec at cfa.harvard.edu mpec at cfa.harvard.edu
Wed Mar 13 17:05:22 EDT 2024


M.P.E.C. 2024-E175                               Issued 2024 March 13, 21:03 UT

     The Minor Planet Electronic Circulars contain information on unusual
         minor planets, routine data on comets and natural satellites,
         and occasional editorial announcements.  They are published
    on behalf of Division F of the International Astronomical Union by the
          Minor Planet Center, Smithsonian Astrophysical Observatory,
                          Cambridge, MA 02138, U.S.A.
			  
             Prepared using the Tamkin Foundation Computer Network

                              MPC at CFA.HARVARD.EDU
            URL https://www.minorplanetcenter.net/    ISSN 1523-6714

                                    2024 EW3                                    


Observations:
     K24E03W*1C2024 03 13.28488011 38 41.532+29 45 24.26         19.83GVEE175G96
     K24E03W 1C2024 03 13.29515711 38 30.322+29 45 29.20         20.35GVEE175G96
     K24E03W 1C2024 03 13.30030511 38 24.713+29 45 31.03         20.49GVEE175G96
     K24E03W KB2024 03 13.35677 11 37 16.270+29 44 14.82         20.0 GVEE175734
     K24E03W KB2024 03 13.36529 11 37 07.452+29 44 11.18         20.3 GVEE175734
     K24E03W KB2024 03 13.37362 11 36 58.891+29 44 05.96         20.1 GVEE175734
     K24E03W mC2024 03 13.40519311 36 32.292+29 45 16.49         20.32GVEE175I52
     K24E03W mC2024 03 13.40576211 36 31.673+29 45 16.34         20.87GVEE175I52
     K24E03W mC2024 03 13.40632511 36 31.115+29 45 16.16         20.87GVEE175I52
     K24E03W mC2024 03 13.40688811 36 30.553+29 45 15.77         20.55GVEE175I52
     K24E03W KB2024 03 13.81843911 31 43.39 +29 42 42.6          20.5 GXEE175I93
     K24E03W KB2024 03 13.82668511 31 36.37 +29 42 51.2          20.7 GXEE175I93
     K24E03W KB2024 03 13.83476611 31 29.43 +29 42 59.3          20.6 GXEE175I93
     K24E03W KC2024 03 13.84525211 31 15.63 +29 43 38.0          20.6 GVEE175L01
     K24E03W KC2024 03 13.84673811 31 14.31 +29 43 39.1          21.0 GVEE175L01
     K24E03W KB2024 03 13.84686111 31 19.51 +29 43 16.4          20.4 GXEE175958
     K24E03W KC2024 03 13.84822411 31 12.97 +29 43 40.1          20.9 GVEE175L01
     K24E03W KC2024 03 13.84970811 31 11.60 +29 43 41.5          20.9 GVEE175L01
     K24E03W KC2024 03 13.85119411 31 10.27 +29 43 42.3          20.8 GVEE175L01
     K24E03W KB2024 03 13.85155511 31 15.48 +29 43 21.0          20.5 GXEE175958
     K24E03W KB2024 03 13.85625311 31 11.29 +29 43 24.3          20.3 GXEE175958

Observer details:
734 Farpoint Observatory, Eskridge.  Observers D. Cromer, G. Hug, D. Goodin,
    R. Valentine.  Measurer G. Hug.  0.69-m f/3.54 reflector + CMO.
958 Observatoire de Dax.  Observer P. Dupouy.  0.50-m f/4.5 Reflector + CMO.
G96 Mt. Lemmon Survey.  Observer J. K. Hogan.  Measurers T. Beuden, V. F.
    Carvajal, D. Fay, J. B. Fazekas, D. C. Fuls, A. R. Gibbs, A. D. Grauer, H.
    Groeller, J. K. Hogan, R. A. Kowalski, S. M. Larson, G. J. Leonard, D.
    Rankin, R. L. Seaman, F. C. Shelly, K. W. Wierzchos.  1.5-m reflector +
    10K CCD.
I52 Steward Observatory, Mt. Lemmon Station.  Observer G. J. Leonard.
    Measurers T. Beuden, V. F. Carvajal, D. Fay, J. B. Fazekas, D. C. Fuls, A.
    R. Gibbs, A. D. Grauer, H. Groeller, J. K. Hogan, R. A. Kowalski, S. M.
    Larson, G. J. Leonard, D. Rankin, R. L. Seaman, F. C. Shelly, K. W.
    Wierzchos.  1.0-m prime focus + CCD.
I93 St Pardon de Conques.  Observer F. Losse.  0.40-m f/3.7 reflector + CCD.
L01 Visnjan Observatory, Tican.  Observers K. Korlevic, I. Lyon.  Measurer K.
    Korlevic.  1.0-m f/2.9 reflector + CCD.

Orbital elements:
2024 EW3                                                 Earth MOID = 0.0031 AU
Epoch 2024 Mar. 31.0 TT = JDT 2460400.5                 Veres                   
M 143.31563              (2000.0)            P               Q                  
n   1.10947465     Peri.  239.52990     +0.80052483     -0.59922045             
a   0.9241117      Node   157.27973     +0.55812939     +0.73951371             
e   0.1420523      Incl.    1.44481     +0.21829240     +0.30668277             
P   0.89           H   28.50          G   0.15           U   7                  
Residuals in seconds of arc
240313 G96  0.3-  0.1+    240313 I52  0.4-  0.2-    240313 L01  0.0   0.2-
240313 G96  0.0   0.2+    240313 I52  0.0   0.0     240313 958  0.2-  0.9+
240313 G96  0.3+  0.0     240313 I52  0.2+  0.1-    240313 L01  0.0   0.4-
240313 734  0.5+  0.3-    240313 I93  0.3+  0.7+    240313 L01  0.4-  0.1-
240313 734  0.1+  0.3+    240313 I93  0.2+  0.5+    240313 L01  0.2-  0.4-
240313 734  0.3-  0.3-    240313 I93  0.1+  0.1+    240313 958  0.7+  0.9+
240313 I52  0.1+  0.4-    240313 L01  0.2-  0.2-    240313 958  0.3-  0.3-

Ephemeris:
2024 EW3                 a,e,i = 0.92, 0.14, 1                   q = 0.7928
Date    TT    R. A. (2000) Decl.     Delta      r    Elong.  Phase     V
2024 02 12    21 21 17.4 -25 17 50   0.04613 0.9420    12.0   167.4
...
2024 02 27    20 08 52.8 -21 07 12   0.01670 0.9770    37.7   141.7    26.6
...
2024 03 06    16 02 36.9 +10 49 28   0.0069790.9941   106.8    72.8    20.3
...
2024 03 12    12 00 10.2 +29 32 37   0.01369 1.0059   152.8    26.9    20.4
2024 03 13    11 42 50.2 +29 44 32   0.01540 1.0077   153.1    26.5    20.7
2024 03 14    11 29 00.0 +29 46 39   0.01717 1.0095   152.7    26.8    20.9
...
2024 03 20    10 44 41.4 +28 56 29   0.02844 1.0196   146.3    32.8    22.2
...
2024 03 28    10 24 52.7 +27 29 41   0.04432 1.0312   137.6    40.7    23.4
...
2024 04 12    10 20 10.1 +24 46 00   0.07559 1.0470   124.5    52.1    24.9

M. P. C. Staff               (C) Copyright 2024 MPC           M.P.E.C. 2024-E175





More information about the Iaude mailing list